Location: Del Amo
(33.8464°N, 118.2104°W)
Time: 20:59:18
(UTC+00:00)

Courier 1B Rocket - Pass Details

Date: 19 September 2024
Orbit: 920 x 1201 km, 28.3° (Epoch: 13 October)

Event Time Altitude Azimuth Distance (km) Brightness Sun altitude
Rises 03:34:54 0° 267° (W) 3,819 9.4 -21.4°
Reaches altitude 10° 03:38:08 10° 254° (WSW) 2,913 8.3 -22.1°
Maximum altitude 03:43:37 24° 204° (SSW) 2,141 6.8 -23.1°
Enters shadow 03:47:03 17° 169° (S) 2,520 6.9 -23.8°
